Regional Weather Roundup
Issued by NWS

Home | Current Version | Previous Version | Graphics & Text | Print | Product List | Glossary On
Versions: 1 2 3 4 5 6 7 8 9 10 11 12 13 14 15 16 17 18 19 20 21 22 23 24 25 26 27 28 29 30 31 32 33 34 35 36 37 38 39 40 41 42 43 44 45 46 47 48 49
000
ASUS45 KTFX 292310
RWRMT
MONTANA REGIONAL WEATHER ROUNDUP
NATIONAL WEATHER SERVICE GREAT FALLS MT
500 PM MDT MON JUN 29 2015

NOTE: "FAIR" INDICATES FEW OR NO CLOUDS BELOW 12000 FEET WITH NO
SIGNIFICANT WEATHER AND/OR OBSTRUCTIONS TO VISIBILITY.

MTZ001>007-043-300000-
WEST OF THE DIVIDE

CITY           SKY/WX    TMP DP  RH WIND       PRES   REMARKS
KALISPELL      CLOUDY    88  53  30 SW6       29.98F
MISSOULA       MOSUNNY   94  48  20 W9        29.97F HX  90
BUTTE          CLOUDY    84  52  33 N8        30.18S
MULLAN PASS    PTSUNNY   78  55  44 CALM      30.22F
DEER LODGE       N/A     90  48  24 E6        30.12F
EUREKA           N/A     75  63  64 NE12      29.97S
HAMILTON         N/A     91  54  27 NW14      29.98F
PLAINS           N/A     92  58  31 CALM      29.96F HX  91
RONAN            N/A     93  54  26 W6        30.03F HX  90
$$

MTZ008-052>055-300000-
SOUTHWEST MONTANA

CITY           SKY/WX    TMP DP  RH WIND       PRES   REMARKS
BOZEMAN        CLOUDY    94  42  16 W7        30.04R HX  90
DILLON         LGT RAIN  71  54  54 SE29G36   30.20R
W YELLOWSTONE  CLOUDY    84  43  23 SW8       30.24R
THREE FORKS      N/A     94  52  24 NW20      30.04R HX  91
TWIN BRIDGES     N/A     73  54  51 E18       30.14S
$$

MTZ009-010-012-014-046-048-049-054-300000-
EAST SLOPES AND CENTRAL MONTANA

CITY           SKY/WX    TMP DP  RH WIND       PRES   REMARKS
CUT BANK       CLOUDY    83  52  34 S12       30.03F
GREAT FALLS    CLOUDY    94  50  22 NW15      30.01F HX  91
MALMSTROM AFB  CLOUDY    94  47  20 NW9G17    30.00S HX  90
HELENA         CLOUDY    90  48  23 S14       30.01R
CONRAD           N/A     83  66  56 W1        30.08S
$$

MTZ011-013-016-021-045-047-050-051-300000-
NORTH CENTRAL MONTANA

CITY           SKY/WX    TMP DP  RH WIND       PRES   REMARKS
HAVRE          CLOUDY    94  49  21 E13       29.95R HX  90
LEWISTOWN      PTSUNNY   91  51  25 SE12      30.04S
CHINOOK          N/A     91  48  22 E5        29.95S
FORT BENTON      N/A     97  48  19 N3        29.95F HX  93
$$

MTZ017>020-022>027-061-062-300000-
NORTHEAST MONTANA

CITY           SKY/WX    TMP DP  RH WIND       PRES   REMARKS
GLASGOW        MOSUNNY   94  46  19 NE10      29.94F HX  90
JORDAN           N/A     98  40  13 N8        29.96F HX  93
SIDNEY         SUNNY     97  52  21 NW10      29.91S HX  94
WOLF POINT     MOSUNNY   98  52  21 N12       29.93F HX  95
MALTA            N/A     96  50  21 E7        29.92F HX  93
PLENTYWOOD       N/A     88  54  31 NW10G16   29.96S
POPLAR           N/A     93  55  27 N14       29.93S HX  91
SCOBEY           N/A     87  52  30 N9        29.98S
$$

MTZ028>42-056>058-300000-
SOUTHCENTRAL AND SOUTHEAST MONTANA

CITY           SKY/WX    TMP DP  RH WIND       PRES   REMARKS
BAKER          MOSUNNY   92  57  30 NW13      29.99F HX  90
BILLINGS       MOSUNNY   98  38  12 E13       30.02F HX  93
LIVINGSTON     MOSUNNY   96  46  18 NE14      30.04S HX  92
MILES CITY     MOSUNNY   97  43  15 N12       29.96F HX  93
BIG TIMBER       N/A     93  46  20 E12       30.05S
EKALAKA          N/A     91  51  25 W10       30.02F
FORSYTH          N/A     97  45  16 NE5       29.96F HX  93
LAUREL           N/A     96  47  18 NE5       30.00F HX  92
ROUNDUP          N/A     97  45  16 NE2       29.92F HX  93
$$

REGIONAL REPORTS...DAKOTAS

CITY           SKY/WX    TMP DP  RH WIND       PRES   REMARKS
WILLISTON      SUNNY     96  59  29 NE15      29.91S HX  95
MINOT          SUNNY     88  56  33 VRB5      29.89F
DICKINSON      SUNNY     92  60  34 W6        29.93F HX  91
BEACH          FAIR      91  48  22 NW9       29.97S
CROSBY         FAIR      86  57  37 NW13G18   29.95R
BISMARCK       SUNNY     91  56  30 N6        29.92F
GRAND FORKS    CLOUDY    74  62  66 N10       29.87R
FARGO          SUNNY     76  63  64 NW13      29.86S
BUFFALO SD       N/A     92  54  27 W14       29.95F HX  90
RAPID CITY     SUNNY     89  58  34 E6        30.05S
$$

REGIONAL REPORTS...WYOMING/IDAHO/WASHINGTON

CITY           SKY/WX    TMP DP  RH WIND       PRES   REMARKS
GILLETTE       SUNNY     90  54  29 VRB6      30.12F
SHERIDAN       MOSUNNY   92  49  22 W5        30.08F
BUFFALO WY     MOSUNNY   87  48  25 NW10      30.18F
CODY           SUNNY     93  43  17 S8        30.12F
YELLOWSTONE LA   N/A     77  41  27 CALM      30.37F
IDAHO FALLS    MOSUNNY   99  43  14 CALM      30.04F HX  95
SALMON         CLOUDY    79  61  53 NE3       29.99F
BOISE          PTSUNNY   99  53  21 NW12      29.90F HX  96
SPOKANE        PTSUNNY   92  56  29 SW9       29.95F HX  90
$$

REGIONAL REPORTS...ALBERTA

CITY           SKY/WX    TMP DP  RH WIND       PRES   REMARKS
EDMONTON       LGT RAIN  68  54  60 S15G25    30.06S
CALGARY        CLOUDY    73  55  53 S7        30.09F
LETHBRIDGE     PTSUNNY   82  54  36 E14G22    30.01F
MEDICINE HAT   CLOUDY    82  52  34 E17G29    29.98F
WATERTON GATE    N/A    N/A N/A N/A N9          N/A
MILK RIVER       N/A     86  55  35 NE15        N/A
ONEFOUR          N/A     91  41  17 SE7         N/A
$$

REGIONAL REPORTS...SASKATCHEWAN

CITY           SKY/WX    TMP DP  RH WIND       PRES   REMARKS
SWIFT CURRENT  HAZE      77  45  31 NE16      30.08R VSB 1
REGINA           N/A     73  50  43 N14G23    30.03R SMOKE
SASKATOON      SMOKE     73  52  46 NE3       30.07F VSB 3/4
CYPRESS HILLS    N/A     73  50  43 E9          N/A
VAL MARIE        N/A     88  52  29 NE14G21     N/A
ASSINIBOIA       N/A     70  59  68 SW7         N/A
$$


USA.gov is the U.S. government's official web portal to all federal, state and local government web resources and services.